Regional Weather Roundup
Issued by NWS Portland, ME

Home | Current Version | Previous Version | Text Only | Print | Product List | Glossary On
Versions: 1 2 3 4 5 6 7 8 9 10 11 12 13 14 15 16 17 18 19 20 21 22 23 24 25 26 27 28 29 30 31 32 33 34 35 36 37 38 39 40 41 42 43 44 45 46 47 48 49 50
000
ASUS41 KGYX 180306
RWRGYX
WEATHER ROUNDUP FOR MAINE AND NEW HAMPSHIRE
NATIONAL WEATHER SERVICE GRAY ME
1100 PM EDT SAT AUG 17 2019

MEZ002-005-006-010-012-015-018-020-021-024-026-027-029-180400-
MAINE

CITY           SKY/WX    TMP DP  RH WIND       PRES   REMARKS
PORTLAND       CLOUDY    66  63  90 E6        30.04S
SANFORD        RAIN      67  66  97 CALM      30.03F
BAR HARBOR     CLOUDY    62  61  96 SE5       30.07S
WISCASSET      CLOUDY    65  64  97 S5        30.05F
ROCKLAND       FOG       62  62 100 SE5       30.05F VSB 3/4
FRYEBURG       LGT RAIN  66  65  96 CALM      30.03F
LEWISTONAUBURN LGT RAIN  64  64 100 SE3       30.04F FOG
AUGUSTA        FOG       64  64 100 S6        30.05F VSB 3/4
WATERVILLE     CLOUDY    65  63  93 CALM      30.02F
BANGOR         CLOUDY    65  63  93 S7        30.06R
GREENVILLE       N/A     62  62 100 CALM      30.03S
MILLINOCKET    CLOUDY    65  61  87 VRB3      30.05S
HOULTON        CLOUDY    64  62  93 S6        30.02S
PRESQUE ISLE   CLOUDY    64  63  96 CALM      30.03S
FRENCHVILLE    CLOUDY    63  60  90 S6        30.02R
CARIBOU        CLOUDY    65  61  87 SE5       30.01S
$$

NHZ002-005-008-009-011-012-014-180400-
NEW HAMPSHIRE

CITY           SKY/WX    TMP DP  RH WIND       PRES   REMARKS
PORTSMOUTH     CLOUDY    67  67  97 E8        30.00F
ROCHESTER      RAIN      67  65  93 VRB3      30.03S FOG
NASHUA         LGT RAIN  70  70 100 CALM      30.01F
MANCHESTER     LGT RAIN  70  68  93 SE5       29.99F
CONCORD        LGT RAIN  67  66  97 SE3       30.00F
LACONIA        FAIR      66  65  96 CALM      30.01S
PLYMOUTH       CLOUDY    66  64  93 CALM      30.00F
BERLIN         LGT RAIN  67  65  93 CALM      30.02R
WHITEFIELD     CLOUDY    67  65  93 CALM      30.00R
JAFFREY        FAIR      68  65  90 CALM      30.04F FOG
KEENE          FAIR      66  66 100 SW5       30.00F
LEBANON        FAIR      66  63  90 S3        30.00F
MT WASHINGTON  FOG       52  52 100 S33         N/A  VSB 1/16
$$

VTZ005-007-008-180400-
VERMONT

CITY           SKY/WX    TMP DP  RH WIND       PRES   REMARKS
ST JOHNSBURY     N/A     65  65 100 MISG      29.98S
MONTPELIER     CLOUDY    65  64  97 CALM      30.04S
BURLINGTON     FAIR      67  64  90 CALM      29.97S
$$

MAZ007-012-024-CTZ003-RIZ002-NYZ038-NYZ072-180400-
SOUTHERN NEW ENGLAND AND NY

CITY           SKY/WX    TMP DP  RH WIND       PRES   REMARKS
BOSTON         CLOUDY    71  65  81 E6        30.01S
WORCESTER      LGT RAIN  71  67  87 SE8       30.04S
NANTUCKET      CLOUDY    69  67  93 NE3       30.01F
PROVIDENCE     CLOUDY    73  72  96 S3        30.01S
HARTFORD       MOCLDY    69  67  93 CALM      30.01R
ALBANY         MOCLDY    68  65  90 CALM      29.99R
NEW YORK CITY  MOCLDY    77  72  84 S7        29.98S
$$

ANZ081-ANZ082-ANZ150-NHZ014-MEZ023>029-180400-
COASTAL MARINE OBSERVATIONS

STATION/POSITION TIME  TEMP    WIND        PRES    WAVE
                       AIR SEA DIR/SP/G            HT/PER
                 (UTC) (F)     (DEG/KT/KT) (MB)    (FT/S)
MATINICUS ROCK   0250   60                 1017.1F
ISLE OF SHOALS   0200   66      90/  9/  9 1016.1R
JEFFREYS LEDGE   0238      67                N/A     3/ 7
CASHES LEDGE BUO 0250   65 65  120/  6/  8 1017.7F   3/ 7
GEORGES BANK BUO 0240   72 70  100/ 12/ 14 1017.1F
$$

.............KEY..............
   WCI - WIND CHILL
   TC  - TEMPERATURE IN CELSIUS
   VSB - VISIBILITY IN MILES
   HX  - HEAT INDEX
   FAIR- INDICATES FEW OR NO CLOUDS BELOW 12,000 FT, WITH NO
         SIGNIFICANT WEATHER AND/OR OBSTRUCTIONS TO VISIBILITY.





USA.gov is the U.S. government's official web portal to all federal, state and local government web resources and services.